Weather History for KBDE - March, 2014

Change the Weather History Date:

Monday, March 10, 2014

  Actual Average Record
Temperature  
Mean Temperature 34 °F -  
Max Temperature 46 °F 33 °F 55 °F (2012)
Min Temperature 21 °F 5 °F -35 °F (1948)
Degree Days  
Heating Degree Days 32    
Moisture  
Dew Point 27 °F    
Average Humidity 75    
Maximum Humidity 100    
Minimum Humidity 50    
Precipitation  
Precipitation 0.00 in - - ()
Sea Level Pressure  
Sea Level Pressure 29.56 in    
Wind  
Wind Speed 7 mph (West)    
Max Wind Speed 12 mph    
Max Gust Speed 21 mph    
Visibility 9 miles    
Events      
Averages and records for this station are not official NWS values.
T = Trace of Precipitation, MM = Missing Value Source: NWS Daily Summary

Daily Weather History Graph

Daily Weather History Graph

Search for Another Location

Airport or City:

Trip Planner

Search our weather history database for the weather conditions in past years. The results will help you decide how hot, cold, wet, or windy it might be!

Date:

Astronomy

Mar. 10, 2014 Rise Set
Actual Time 7:41 AM CDT 7:16 PM CDT
Civil Twilight 7:10 AM CDT 7:47 PM CDT
Nautical Twilight 6:34 AM CDT 8:24 PM CDT
Astronomical Twilight 5:57 AM CDT 9:01 PM CDT
Moon 1:40 PM CDT (3/10) 4:14 AM CDT (3/10)
Length of Visible Light 12h 36m
Length of Day
11h 34m
Waxing Gibbous, 70% of the Moon is Illuminated
Mar 10
Waxing Gibbous
Mar 16
Full
Mar 23
Last Quarter
Mar 30
New
Apr 7
First Quarter

Hourly Weather History & Observations

Time (CDT) Temp. Windchill Dew Point Humidity Pressure Visibility Wind Dir Wind Speed Gust Speed Precip Events Conditions
12:53 AM 26.1 °F 18.4 °F 25.0 °F 96% 29.54 in 10.0 mi SSW 6.9 mph - N/A   Clear
1:53 AM 27.0 °F 20.5 °F 25.0 °F 92% 29.52 in 10.0 mi SSW 5.8 mph - N/A   Clear
2:53 AM 24.1 °F 16.0 °F 23.0 °F 96% 29.51 in 10.0 mi SSW 6.9 mph - N/A   Clear
3:53 AM 24.1 °F 17.0 °F 21.9 °F 91% 29.48 in 10.0 mi SSW 5.8 mph - N/A   Clear
4:53 AM 25.0 °F 20.7 °F 23.0 °F 92% 29.47 in 6.0 mi SSW 3.5 mph - N/A   Clear
5:17 AM 23.0 °F 15.8 °F 23.0 °F 100% 29.43 in 2.0 mi SSW 5.8 mph - N/A   Clear
5:29 AM 23.0 °F 15.8 °F 21.9 °F 96% 29.43 in 5.0 mi SW 5.8 mph - N/A   Clear
5:53 AM 21.9 °F 17.2 °F 21.0 °F 96% 29.47 in 7.0 mi WSW 3.5 mph - N/A   Clear
6:53 AM 33.1 °F 25.5 °F 30.0 °F 89% 29.50 in 10.0 mi WNW 9.2 mph 19.6 mph N/A   Clear
7:53 AM 33.1 °F 24.9 °F 28.9 °F 85% 29.52 in 10.0 mi WNW 10.4 mph 20.7 mph N/A   Clear
8:53 AM 33.1 °F 26.1 °F 28.9 °F 85% 29.54 in 10.0 mi WNW 8.1 mph - N/A   Clear
9:53 AM 35.1 °F 28.6 °F 28.9 °F 78% 29.57 in 10.0 mi West 8.1 mph - N/A   Clear
10:53 AM 37.9 °F 32.7 °F 28.9 °F 70% 29.58 in 10.0 mi Variable 6.9 mph - N/A   Clear
11:53 AM 41.0 °F 36.4 °F 28.9 °F 62% 29.57 in 10.0 mi Variable 6.9 mph - N/A   Clear
12:53 PM 43.0 °F 36.8 °F 28.9 °F 58% 29.57 in 10.0 mi WSW 11.5 mph - N/A   Clear
1:53 PM 45.0 °F 40.1 °F 28.9 °F 53% 29.57 in 10.0 mi West 9.2 mph 18.4 mph N/A   Clear
2:53 PM 46.0 °F 41.9 °F 28.0 °F 50% 29.57 in 10.0 mi WNW 8.1 mph - N/A   Clear
3:53 PM 46.0 °F 40.6 °F 28.0 °F 50% 29.57 in 10.0 mi WNW 11.5 mph 18.4 mph N/A   Clear
4:53 PM 45.0 °F 39.7 °F 28.0 °F 52% 29.57 in 10.0 mi West 10.4 mph 20.7 mph N/A   Clear
5:53 PM 43.0 °F 38.2 °F 28.0 °F 56% 29.60 in 10.0 mi West 8.1 mph 16.1 mph N/A   Clear
6:53 PM 41.0 °F 35.8 °F 28.0 °F 60% 29.61 in 10.0 mi WNW 8.1 mph - N/A   Clear
7:53 PM 39.0 °F 34.0 °F 28.0 °F 65% 29.66 in 10.0 mi WNW 6.9 mph - N/A   Clear
8:53 PM 37.9 °F 32.1 °F 27.0 °F 65% 29.68 in 10.0 mi WNW 8.1 mph - N/A   Clear
9:53 PM 36.0 °F 31.1 °F 27.0 °F 70% 29.70 in 10.0 mi WNW 5.8 mph - N/A   Clear
10:53 PM 34.0 °F 28.8 °F 26.1 °F 73% 29.71 in 10.0 mi Variable 5.8 mph - N/A   Clear
11:53 PM 33.1 °F 26.1 °F 26.1 °F 75% 29.73 in 10.0 mi WNW 8.1 mph - N/A   Clear